CSC8669 ZUUU-ZPPP

Flight info

Callsign CSC8669
Flight time 0h 58m
Altitude 30100
Route K0841S1130 IDBOR7K IDBOR B330 SAMIV/K0852S1100 W30 MEBNA MEB1J
Aircraft A321/M-SDE3FGHIRWY/LB1

Departure

Time 2026-04-29 14:07
Airport Chengdu Shuangliu International Airport (ZUUU)

Arrival

Time 2026-04-29 15:06
Airport Kunming Changshui International Airport (ZPPP)
Time Latitude Longitude Altitude Speed Heading
2026-04-29 13:37 30.56915 103.95034 1694 ft 0 kts 25°
2026-04-29 13:49 30.56914 103.95033 1647 ft 3 kts 25°
2026-04-29 13:49 30.56895 103.95023 1647 ft 3 kts 25°
2026-04-29 13:49 30.56876 103.95013 1647 ft 3 kts 30°
2026-04-29 13:49 30.56857 103.95005 1647 ft 3 kts 358°
2026-04-29 13:50 30.56835 103.95021 1647 ft 8 kts 290°
2026-04-29 13:50 30.56815 103.95080 1647 ft 8 kts 291°
2026-04-29 13:50 30.56796 103.95138 1647 ft 8 kts 291°
2026-04-29 13:50 30.56784 103.95166 1647 ft 0 kts 290°
2026-04-29 13:58 30.56788 103.95155 1647 ft 3 kts 290°
2026-04-29 13:58 30.56798 103.95122 1647 ft 5 kts 290°
2026-04-29 13:59 30.56813 103.95077 1647 ft 7 kts 292°
2026-04-29 13:59 30.56834 103.95021 1647 ft 8 kts 292°
2026-04-29 13:59 30.56858 103.94955 1647 ft 10 kts 292°
2026-04-29 13:59 30.56886 103.94877 1647 ft 11 kts 292°
2026-04-29 14:00 30.56917 103.94789 1647 ft 12 kts 290°
2026-04-29 14:00 30.56915 103.94698 1647 ft 12 kts 234°
2026-04-29 14:00 30.56858 103.94659 1647 ft 9 kts 188°
2026-04-29 14:00 30.56796 103.94637 1647 ft 10 kts 203°
2026-04-29 14:01 30.56727 103.94601 1647 ft 12 kts 204°
2026-04-29 14:01 30.56647 103.94564 1647 ft 13 kts 201°
2026-04-29 14:01 30.56561 103.94525 1647 ft 14 kts 201°
2026-04-29 14:01 30.56468 103.94478 1647 ft 15 kts 204°
2026-04-29 14:02 30.56381 103.94436 1647 ft 7 kts 199°
2026-04-29 14:02 30.56331 103.94416 1647 ft 8 kts 199°
2026-04-29 14:02 30.56273 103.94390 1647 ft 10 kts 203°
2026-04-29 14:02 30.56244 103.94326 1647 ft 10 kts 278°
2026-04-29 14:03 30.56268 103.94251 1647 ft 9 kts 291°
2026-04-29 14:03 30.56293 103.94176 1647 ft 11 kts 291°
2026-04-29 14:03 30.56316 103.94110 1647 ft 0 kts 293°
2026-04-29 14:03 30.56318 103.94105 1647 ft 0 kts 293°
2026-04-29 14:05 30.56322 103.94094 1647 ft 7 kts 293°
2026-04-29 14:05 30.56409 103.94022 1648 ft 16 kts
2026-04-29 14:05 30.56446 103.94049 1648 ft 0 kts 26°
2026-04-29 14:05 30.56448 103.94050 1648 ft 1 kts 26°
2026-04-29 14:06 30.56453 103.94053 1648 ft 1 kts 26°
2026-04-29 14:06 30.56460 103.94057 1649 ft 1 kts 26°
2026-04-29 14:06 30.56469 103.94062 1649 ft 2 kts 26°
2026-04-29 14:06 30.56524 103.94087 1649 ft 28 kts 21°
2026-04-29 14:07 30.56986 103.94301 1646 ft 112 kts 22°
2026-04-29 14:07 30.57922 103.94733 1650 ft 178 kts 22°
2026-04-29 14:07 30.59163 103.95326 2200 ft 194 kts 24°
2026-04-29 14:07 30.60447 103.95941 2571 ft 209 kts 24°
2026-04-29 14:08 30.61885 103.96613 2797 ft 236 kts 24°
2026-04-29 14:08 30.63489 103.97358 3204 ft 258 kts 23°
2026-04-29 14:08 30.65187 103.98142 3945 ft 266 kts 23°
2026-04-29 14:08 30.66922 103.98940 4796 ft 270 kts 24°
2026-04-29 14:09 30.68583 103.99955 5527 ft 273 kts 40°
2026-04-29 14:09 30.69838 104.01599 5777 ft 272 kts 57°
2026-04-29 14:09 30.70792 104.03503 5846 ft 272 kts 63°
2026-04-29 14:09 30.71635 104.05463 5852 ft 271 kts 64°
2026-04-29 14:10 30.72471 104.07424 5848 ft 271 kts 63°
2026-04-29 14:10 30.73339 104.09367 5847 ft 271 kts 62°
2026-04-29 14:10 30.74243 104.11296 5850 ft 271 kts 61°
2026-04-29 14:10 30.75174 104.13211 5855 ft 273 kts 60°
2026-04-29 14:11 30.75913 104.15232 5852 ft 272 kts 79°
2026-04-29 14:11 30.75935 104.17411 5852 ft 271 kts 102°
2026-04-29 14:11 30.75238 104.19404 5857 ft 271 kts 124°
2026-04-29 14:11 30.73909 104.20970 5853 ft 270 kts 147°
2026-04-29 14:12 30.72206 104.21807 5855 ft 273 kts 168°
2026-04-29 14:12 30.70310 104.21816 5855 ft 275 kts 192°
2026-04-29 14:12 30.68478 104.21142 5848 ft 276 kts 199°
2026-04-29 14:12 30.66663 104.20406 5849 ft 276 kts 199°
2026-04-29 14:13 30.64849 104.19668 5849 ft 277 kts 199°
2026-04-29 14:13 30.63035 104.18930 5849 ft 276 kts 199°
2026-04-29 14:13 30.61219 104.18193 5849 ft 276 kts 199°
2026-04-29 14:13 30.59398 104.17458 6087 ft 279 kts 199°
2026-04-29 14:14 30.57561 104.16718 6946 ft 280 kts 199°
2026-04-29 14:14 30.55715 104.15976 7768 ft 281 kts 199°
2026-04-29 14:14 30.53867 104.15231 8593 ft 281 kts 201°
2026-04-29 14:14 30.52014 104.14478 9425 ft 283 kts 200°
2026-04-29 14:15 30.50144 104.13728 10190 ft 286 kts 200°
2026-04-29 14:15 30.48255 104.12973 10871 ft 289 kts 200°
2026-04-29 14:15 30.46338 104.12195 11471 ft 298 kts 201°
2026-04-29 14:15 30.44327 104.11300 11627 ft 321 kts 203°
2026-04-29 14:16 30.42185 104.10293 11774 ft 344 kts 204°
2026-04-29 14:16 30.39903 104.09200 11889 ft 365 kts 204°
2026-04-29 14:16 30.37517 104.08058 12300 ft 375 kts 204°
2026-04-29 14:16 30.35085 104.06904 12903 ft 381 kts 203°
2026-04-29 14:17 30.32617 104.05746 13533 ft 385 kts 203°
2026-04-29 14:17 30.30963 104.04976 13929 ft 388 kts 203°
2026-04-29 14:17 30.27545 104.03538 14639 ft 395 kts 195°
2026-04-29 14:17 30.24808 104.03068 15185 ft 402 kts 184°
2026-04-29 14:18 30.21990 104.03126 15727 ft 407 kts 180°
2026-04-29 14:18 30.20109 104.03202 16082 ft 410 kts 180°
2026-04-29 14:18 30.17247 104.03316 16656 ft 414 kts 180°
2026-04-29 14:18 30.14354 104.03431 17227 ft 418 kts 181°
2026-04-29 14:19 30.11436 104.03547 17791 ft 422 kts 181°
2026-04-29 14:19 30.08488 104.03659 18330 ft 426 kts 181°
2026-04-29 14:19 30.04503 104.03806 18956 ft 431 kts 181°
2026-04-29 14:19 30.02506 104.03880 19256 ft 433 kts 182°
2026-04-29 14:20 29.99481 104.03992 19701 ft 437 kts 182°
2026-04-29 14:20 29.96431 104.04108 20146 ft 440 kts 182°
2026-04-29 14:20 29.93353 104.04225 20597 ft 444 kts 182°
2026-04-29 14:20 29.90256 104.04340 21004 ft 448 kts 182°
2026-04-29 14:21 29.87131 104.04455 21416 ft 451 kts 183°
2026-04-29 14:21 29.83976 104.04571 21804 ft 455 kts 183°
2026-04-29 14:21 29.80797 104.04689 22215 ft 459 kts 183°
2026-04-29 14:21 29.77595 104.04807 22617 ft 462 kts 184°
2026-04-29 14:22 29.74375 104.04842 23002 ft 464 kts 186°
2026-04-29 14:22 29.71138 104.04762 23388 ft 466 kts 188°
2026-04-29 14:22 29.67884 104.04605 23752 ft 469 kts 189°
2026-04-29 14:22 29.64621 104.04412 24093 ft 471 kts 189°
2026-04-29 14:23 29.61335 104.04220 24439 ft 474 kts 188°
2026-04-29 14:23 29.58036 104.04049 24807 ft 476 kts 188°
2026-04-29 14:23 29.54716 104.03902 25160 ft 478 kts 187°
2026-04-29 14:23 29.51381 104.03774 25509 ft 480 kts 187°
2026-04-29 14:24 29.48042 104.03658 25852 ft 481 kts 187°
2026-04-29 14:24 29.44688 104.03544 26206 ft 483 kts 187°
2026-04-29 14:24 29.41320 104.03424 26559 ft 485 kts 188°
2026-04-29 14:24 29.37940 104.03306 26913 ft 487 kts 187°
2026-04-29 14:25 29.34538 104.03264 27226 ft 491 kts 186°
2026-04-29 14:25 29.31113 104.03303 27478 ft 493 kts 185°
2026-04-29 14:25 29.27682 104.03391 27525 ft 494 kts 184°
2026-04-29 14:25 29.24251 104.03497 27524 ft 493 kts 184°
2026-04-29 14:26 29.20820 104.03592 27533 ft 493 kts 185°
2026-04-29 14:26 29.17389 104.03665 27531 ft 492 kts 185°
2026-04-29 14:26 29.13962 104.03716 27531 ft 492 kts 185°
2026-04-29 14:26 29.10538 104.03755 27534 ft 492 kts 185°
2026-04-29 14:27 29.07117 104.03790 27496 ft 492 kts 186°
2026-04-29 14:27 29.03686 104.03826 27535 ft 494 kts 186°
2026-04-29 14:27 29.00254 104.03867 27534 ft 494 kts 185°
2026-04-29 14:28 28.93377 104.03965 27534 ft 494 kts 185°
2026-04-29 14:28 28.89943 104.04015 27534 ft 494 kts 185°
2026-04-29 14:28 28.86504 104.04065 27538 ft 494 kts 185°
2026-04-29 14:28 28.83064 104.04114 27533 ft 494 kts 185°
2026-04-29 14:29 28.79630 104.04159 27511 ft 494 kts 186°
2026-04-29 14:29 28.76193 104.04205 27539 ft 494 kts 186°
2026-04-29 14:29 28.72753 104.04252 27535 ft 495 kts 186°
2026-04-29 14:29 28.69309 104.04301 27538 ft 495 kts 186°
2026-04-29 14:30 28.65855 104.04350 27534 ft 497 kts 186°
2026-04-29 14:30 28.62403 104.04304 27537 ft 494 kts 191°
2026-04-29 14:30 28.59037 104.03752 27534 ft 484 kts 199°
2026-04-29 14:30 28.55889 104.02681 27539 ft 474 kts 208°
2026-04-29 14:31 28.52926 104.01118 27535 ft 467 kts 216°
2026-04-29 14:31 28.50174 103.99205 27527 ft 463 kts 218°
2026-04-29 14:31 28.47440 103.97264 27537 ft 463 kts 218°
2026-04-29 14:31 28.44699 103.95331 27539 ft 464 kts 218°
2026-04-29 14:32 28.41958 103.93408 27535 ft 463 kts 218°
2026-04-29 14:32 28.39215 103.91489 27535 ft 462 kts 218°
2026-04-29 14:32 28.36474 103.89569 27535 ft 462 kts 218°
2026-04-29 14:32 28.33739 103.87649 27543 ft 462 kts 218°
2026-04-29 14:33 28.31003 103.85724 27538 ft 462 kts 218°
2026-04-29 14:33 28.28267 103.83801 27540 ft 464 kts 218°
2026-04-29 14:33 28.25519 103.81871 27539 ft 464 kts 217°
2026-04-29 14:33 28.22776 103.79945 27537 ft 464 kts 217°
2026-04-29 14:34 28.20020 103.78007 27534 ft 466 kts 217°
2026-04-29 14:34 28.17265 103.76068 27539 ft 467 kts 217°
2026-04-29 14:34 28.14506 103.74130 27533 ft 467 kts 217°
2026-04-29 14:34 28.11740 103.72189 27527 ft 467 kts 217°
2026-04-29 14:35 28.08982 103.70257 27551 ft 467 kts 217°
2026-04-29 14:35 28.06217 103.68326 27531 ft 467 kts 217°
2026-04-29 14:35 28.03450 103.66394 27531 ft 467 kts 217°
2026-04-29 14:35 28.00686 103.64466 27547 ft 467 kts 217°
2026-04-29 14:36 27.97917 103.62537 27498 ft 467 kts 217°
2026-04-29 14:36 27.95149 103.60609 27540 ft 469 kts 217°
2026-04-29 14:36 27.92371 103.58673 27536 ft 469 kts 217°
2026-04-29 14:36 27.89589 103.56731 27537 ft 470 kts 217°
2026-04-29 14:37 27.86809 103.54789 27549 ft 470 kts 218°
2026-04-29 14:37 27.84024 103.52845 27549 ft 470 kts 217°
2026-04-29 14:37 27.81240 103.50906 27546 ft 470 kts 217°
2026-04-29 14:37 27.78458 103.48973 27542 ft 470 kts 217°
2026-04-29 14:38 27.75674 103.47041 27533 ft 470 kts 217°
2026-04-29 14:38 27.72886 103.45108 27534 ft 470 kts 217°
2026-04-29 14:38 27.70101 103.43176 27541 ft 470 kts 217°
2026-04-29 14:38 27.67353 103.41269 27543 ft 470 kts 217°
2026-04-29 14:39 27.64570 103.39342 27535 ft 469 kts 217°
2026-04-29 14:39 27.61790 103.37417 27536 ft 469 kts 217°
2026-04-29 14:39 27.59011 103.35488 27538 ft 470 kts 217°
2026-04-29 14:39 27.56230 103.33559 27520 ft 470 kts 217°
2026-04-29 14:40 27.53436 103.31628 27520 ft 470 kts 217°
2026-04-29 14:40 27.50649 103.29705 27520 ft 470 kts 217°
2026-04-29 14:40 27.47863 103.27782 27526 ft 470 kts 217°
2026-04-29 14:40 27.45044 103.25904 27525 ft 473 kts 213°
2026-04-29 14:41 27.42003 103.24410 27514 ft 479 kts 207°
2026-04-29 14:41 27.38896 103.23041 27526 ft 480 kts 207°
2026-04-29 14:41 27.35790 103.21673 27527 ft 480 kts 207°
2026-04-29 14:41 27.32685 103.20306 27512 ft 479 kts 207°
2026-04-29 14:42 27.29576 103.18935 27516 ft 481 kts 207°
2026-04-29 14:42 27.26460 103.17559 27516 ft 481 kts 207°
2026-04-29 14:42 27.23349 103.16183 27511 ft 480 kts 207°
2026-04-29 14:42 27.20237 103.14805 27515 ft 480 kts 207°
2026-04-29 14:43 27.17135 103.13430 27505 ft 480 kts 207°
2026-04-29 14:43 27.14025 103.12053 27497 ft 480 kts 207°
2026-04-29 14:43 27.10917 103.10683 27512 ft 479 kts 207°
2026-04-29 14:43 27.07817 103.09317 27509 ft 479 kts 207°
2026-04-29 14:44 27.04753 103.07966 27511 ft 479 kts 207°
2026-04-29 14:44 27.01653 103.06599 27510 ft 479 kts 207°
2026-04-29 14:44 26.98554 103.05232 27497 ft 479 kts 207°
2026-04-29 14:44 26.95452 103.03865 27504 ft 479 kts 207°
2026-04-29 14:45 26.92355 103.02503 27512 ft 478 kts 206°
2026-04-29 14:45 26.89260 103.01144 27487 ft 477 kts 206°
2026-04-29 14:45 26.86166 102.99788 27491 ft 478 kts 206°
2026-04-29 14:45 26.83073 102.98431 27514 ft 477 kts 206°
2026-04-29 14:46 26.79987 102.97075 27507 ft 477 kts 206°
2026-04-29 14:46 26.76889 102.95713 27507 ft 479 kts 206°
2026-04-29 14:46 26.73790 102.94351 27296 ft 476 kts 206°
2026-04-29 14:46 26.70713 102.93005 26818 ft 473 kts 206°
2026-04-29 14:47 26.67654 102.91666 26333 ft 472 kts 206°
2026-04-29 14:47 26.64595 102.90327 25851 ft 472 kts 206°
2026-04-29 14:47 26.61540 102.88989 25393 ft 472 kts 206°
2026-04-29 14:47 26.59517 102.88105 25095 ft 471 kts 206°
2026-04-29 14:48 26.55423 102.86317 24465 ft 473 kts 205°
2026-04-29 14:48 26.52350 102.84974 24041 ft 474 kts 205°
2026-04-29 14:48 26.49274 102.83631 23598 ft 475 kts 205°
2026-04-29 14:48 26.46203 102.82294 23071 ft 472 kts 205°
2026-04-29 14:49 26.43153 102.80966 22561 ft 469 kts 205°
2026-04-29 14:49 26.40123 102.79649 22078 ft 466 kts 205°
2026-04-29 14:49 26.37121 102.78343 21586 ft 462 kts 205°
2026-04-29 14:49 26.34139 102.77046 21092 ft 457 kts 205°
2026-04-29 14:50 26.31194 102.75768 20614 ft 451 kts 205°
2026-04-29 14:50 26.28275 102.74501 20139 ft 450 kts 204°
2026-04-29 14:50 26.25359 102.73234 19679 ft 448 kts 204°
2026-04-29 14:50 26.22457 102.72000 19232 ft 445 kts 201°
2026-04-29 14:51 26.19447 102.71195 18778 ft 446 kts 191°
2026-04-29 14:51 26.16354 102.70999 18342 ft 447 kts 181°
2026-04-29 14:51 26.13274 102.71428 17820 ft 447 kts 171°
2026-04-29 14:51 26.10303 102.72464 17309 ft 447 kts 160°
2026-04-29 14:52 26.07531 102.74018 16811 ft 446 kts 153°
2026-04-29 14:52 26.04827 102.75671 16331 ft 442 kts 153°
2026-04-29 14:52 26.02144 102.77310 15869 ft 438 kts 153°
2026-04-29 14:52 25.99519 102.78911 15614 ft 435 kts 153°
2026-04-29 14:53 25.96865 102.80527 15586 ft 435 kts 153°
2026-04-29 14:53 25.94202 102.82145 15598 ft 436 kts 153°
2026-04-29 14:53 25.91541 102.83760 15613 ft 437 kts 153°
2026-04-29 14:53 25.88874 102.85381 15617 ft 437 kts 153°
2026-04-29 14:54 25.86216 102.86997 15617 ft 431 kts 153°
2026-04-29 14:54 25.83652 102.88559 15610 ft 410 kts 153°
2026-04-29 14:54 25.81215 102.90046 15612 ft 390 kts 153°
2026-04-29 14:54 25.78881 102.91469 15412 ft 377 kts 153°
2026-04-29 14:55 25.76609 102.92848 15138 ft 368 kts 153°
2026-04-29 14:55 25.74386 102.94192 14855 ft 359 kts 153°
2026-04-29 14:55 25.72220 102.95503 14574 ft 351 kts 153°
2026-04-29 14:55 25.70098 102.96790 14297 ft 344 kts 153°
2026-04-29 14:56 25.68018 102.98051 14024 ft 338 kts 153°
2026-04-29 14:56 25.65975 102.99290 13713 ft 332 kts 153°
2026-04-29 14:56 25.63971 103.00505 13411 ft 326 kts 153°
2026-04-29 14:56 25.62000 103.01701 13114 ft 320 kts 153°
2026-04-29 14:57 25.60057 103.02879 12800 ft 316 kts 153°
2026-04-29 14:57 25.58145 103.04037 12501 ft 311 kts 153°
2026-04-29 14:57 25.56262 103.05178 12199 ft 306 kts 153°
2026-04-29 14:57 25.54405 103.06300 11907 ft 302 kts 152°
2026-04-29 14:58 25.52585 103.07404 11725 ft 295 kts 152°
2026-04-29 14:58 25.50788 103.08495 11721 ft 294 kts 153°
2026-04-29 14:58 25.49067 103.09720 11717 ft 296 kts 141°
2026-04-29 14:58 25.47671 103.11397 11718 ft 298 kts 130°
2026-04-29 14:59 25.46381 103.13192 11718 ft 298 kts 129°
2026-04-29 14:59 25.45090 103.14990 11720 ft 299 kts 129°
2026-04-29 14:59 25.43758 103.16757 11711 ft 299 kts 138°
2026-04-29 14:59 25.41986 103.17838 11712 ft 286 kts 170°
2026-04-29 15:00 25.40115 103.17696 11728 ft 261 kts 204°
2026-04-29 15:00 25.38652 103.16619 11723 ft 251 kts 221°
2026-04-29 15:00 25.37320 103.15374 11713 ft 250 kts 220°
2026-04-29 15:00 25.35969 103.14163 11712 ft 250 kts 219°
2026-04-29 15:01 25.34614 103.12978 11709 ft 247 kts 219°
2026-04-29 15:01 25.33260 103.11796 11711 ft 248 kts 219°
2026-04-29 15:01 25.31923 103.10628 11502 ft 248 kts 218°
2026-04-29 15:01 25.30557 103.09434 11235 ft 247 kts 218°
2026-04-29 15:02 25.29665 103.08654 11032 ft 247 kts 218°
2026-04-29 15:02 25.27864 103.07080 10620 ft 246 kts 217°
2026-04-29 15:02 25.26542 103.05926 10330 ft 245 kts 217°
2026-04-29 15:02 25.25201 103.04755 10030 ft 246 kts 217°
2026-04-29 15:03 25.23868 103.03592 9714 ft 242 kts 217°
2026-04-29 15:03 25.22597 103.02482 9406 ft 224 kts 216°
2026-04-29 15:03 25.21404 103.01441 9119 ft 215 kts 217°
2026-04-29 15:03 25.20257 103.00440 8834 ft 203 kts 216°
2026-04-29 15:04 25.19526 102.99802 8655 ft 194 kts 216°
2026-04-29 15:04 25.18199 102.98645 8348 ft 174 kts 215°
2026-04-29 15:04 25.17264 102.97831 8126 ft 169 kts 215°
2026-04-29 15:04 25.16643 102.97291 7990 ft 168 kts 215°
2026-04-29 15:05 25.15736 102.96501 7759 ft 164 kts 216°
2026-04-29 15:05 25.14849 102.95728 7506 ft 161 kts 216°
2026-04-29 15:05 25.13978 102.94964 7144 ft 158 kts 219°
2026-04-29 15:05 25.13128 102.94229 6957 ft 156 kts 219°
2026-04-29 15:06 25.12332 102.93527 6900 ft 128 kts 216°
2026-04-29 15:06 25.11865 102.93121 6901 ft 44 kts 218°
2026-04-29 15:06 25.11644 102.92935 6915 ft 27 kts 203°
2026-04-29 15:06 25.11480 102.92878 6914 ft 25 kts 195°
2026-04-29 15:07 25.11385 102.92907 6906 ft 9 kts 101°
2026-04-29 15:07 25.11432 102.92996 6907 ft 14 kts 63°
2026-04-29 15:07 25.11403 102.93094 6903 ft 15 kts 127°
2026-04-29 15:07 25.11346 102.93172 6902 ft 12 kts 128°
2026-04-29 15:08 25.11287 102.93254 6902 ft 16 kts 129°
2026-04-29 15:08 25.11228 102.93357 6901 ft 6 kts 88°
2026-04-29 15:08 25.11259 102.93396 6901 ft 9 kts 38°
2026-04-29 15:08 25.11297 102.93428 6900 ft 0 kts 38°
2026-04-29 15:09 25.11298 102.93428 6900 ft 0 kts 38°